Keokuk, IA

12:38 AM CDT on May 23, 2017 (GMT -0500)
Keokuk Municipal

Weather History for KEOK - January, 2012

Change the Weather History Date:

Thursday, January 12, 2012

  Actual Average Record
Temperature  
Mean Temperature 18 °F -  
Max Temperature 24 °F 31 °F 60 °F (1960)
Min Temperature 12 °F 15 °F -21 °F (1974)
Degree Days  
Heating Degree Days 47    
Moisture  
Dew Point 12 °F    
Average Humidity 85    
Maximum Humidity 93    
Minimum Humidity 79    
Precipitation  
Precipitation 0.00 in - - ()
Sea Level Pressure  
Sea Level Pressure 29.74 in    
Wind  
Wind Speed 18 mph (WNW)    
Max Wind Speed 23 mph    
Max Gust Speed 34 mph    
Visibility 2 miles    
Events Snow    
Averages and records for this station are not official NWS values.
T = Trace of Precipitation, MM = Missing Value Source: NWS Daily Summary

Daily Weather History Graph

Daily Weather History Graph

Search for Another Location

Airport or City:

Trip Planner

Search our weather history database for the weather conditions in past years. The results will help you decide how hot, cold, wet, or windy it might be!

Date:

Astronomy

Jan. 12, 2012 Rise Set
Actual Time 7:28 AM CST 4:59 PM CST
Civil Twilight 6:57 AM CST 5:30 PM CST
Nautical Twilight 6:24 AM CST 6:03 PM CST
Astronomical Twilight 5:51 AM CST 6:36 PM CST
Moon 9:06 PM CST (1/12) 9:11 AM CST (1/12)
Length of Visible Light 10h 32m
Length of Day
9h 31m
Waning Gibbous, 87% of the Moon is Illuminated
Jan 12
Waning Gibbous
Jan 16
Last Quarter
Jan 23
New
Jan 30
First Quarter
Feb 7
Full

Hourly Weather History & Observations

Time (CST) Temp. Windchill Dew Point Humidity Pressure Visibility Wind Dir Wind Speed Gust Speed Precip Events Conditions
12:15 AM 24.8 °F 10.3 °F 19.4 °F 80% 29.73 in 10.0 mi NW 20.7 mph 31.1 mph N/A   Overcast
12:35 AM 23.0 °F 8.7 °F 19.4 °F 86% 29.73 in 10.0 mi NW 18.4 mph 27.6 mph N/A Snow Light Snow
12:55 AM 21.2 °F 5.2 °F 17.6 °F 86% 29.73 in 4.0 mi NW 21.9 mph 28.8 mph N/A Snow Light Snow
1:15 AM 21.2 °F 6.8 °F 17.6 °F 86% 29.73 in 1.8 mi NW 17.3 mph 28.8 mph N/A Snow Light Snow
1:35 AM 19.4 °F 4.1 °F 17.6 °F 93% 29.73 in 1.5 mi NW 18.4 mph 27.6 mph N/A Snow Light Snow
1:55 AM 19.4 °F 6.0 °F 17.6 °F 93% 29.73 in 2.0 mi NW 13.8 mph 25.3 mph N/A Snow Light Snow
2:15 AM 19.4 °F 6.6 °F 17.6 °F 93% 29.74 in 1.8 mi NW 12.7 mph 21.9 mph N/A Snow Light Snow
2:35 AM 19.4 °F 4.1 °F 15.8 °F 86% 29.74 in 1.8 mi NW 18.4 mph 31.1 mph N/A Snow Light Snow
2:55 AM 19.4 °F 5.5 °F 15.8 °F 86% 29.74 in 1.8 mi NW 15.0 mph 24.2 mph N/A Snow Light Snow
3:15 AM 17.6 °F 4.3 °F 15.8 °F 93% 29.73 in 1.5 mi NW 12.7 mph 23.0 mph N/A Snow Light Snow
3:35 AM 17.6 °F 4.3 °F 15.8 °F 93% 29.73 in 2.5 mi NNW 12.7 mph 28.8 mph N/A Snow Light Snow
3:55 AM 17.6 °F 0.9 °F 14.0 °F 86% 29.73 in 3.0 mi NW 20.7 mph 31.1 mph N/A Snow Light Snow
4:15 AM 17.6 °F 2.7 °F 14.0 °F 86% 29.72 in 1.8 mi NW 16.1 mph 24.2 mph N/A Snow Light Snow
4:35 AM 15.8 °F -0.6 °F 14.0 °F 93% 29.72 in 1.2 mi NW 18.4 mph 27.6 mph N/A Snow Light Snow
4:55 AM 15.8 °F -1.9 °F 14.0 °F 93% 29.72 in 1.2 mi NW 21.9 mph 29.9 mph N/A Snow Light Snow
5:15 AM 15.8 °F 0.3 °F 12.2 °F 86% 29.72 in 1.5 mi NW 16.1 mph 27.6 mph N/A Snow Light Snow
5:35 AM 15.8 °F 0.9 °F 12.2 °F 86% 29.73 in 1.2 mi NW 15.0 mph 24.2 mph N/A Snow Light Snow
6:15 AM 15.8 °F 0.3 °F 12.2 °F 86% 29.73 in 2.0 mi NW 16.1 mph 21.9 mph N/A Snow Light Snow
6:35 AM 15.8 °F -0.6 °F 12.2 °F 86% 29.73 in 2.5 mi NW 18.4 mph 24.2 mph N/A Snow Light Snow
6:55 AM 15.8 °F -1.1 °F 12.2 °F 86% 29.73 in 1.5 mi NW 19.6 mph 31.1 mph N/A Snow Light Snow
7:15 AM 15.8 °F -0.2 °F 12.2 °F 86% 29.73 in 3.0 mi NW 17.3 mph 27.6 mph N/A Snow Light Snow
7:35 AM 15.8 °F -0.6 °F 10.4 °F 79% 29.73 in 3.0 mi NW 18.4 mph 28.8 mph N/A Snow Light Snow
7:55 AM 15.8 °F 0.3 °F 12.2 °F 86% 29.72 in 1.8 mi NW 16.1 mph 26.5 mph N/A Snow Light Snow
8:15 AM 14.0 °F -3.9 °F 10.4 °F 86% 29.72 in 2.5 mi NW 20.7 mph 28.8 mph N/A Snow Light Snow
8:35 AM 14.0 °F -3.9 °F 10.4 °F 86% 29.73 in 2.0 mi NW 20.7 mph 34.5 mph N/A Snow Light Snow
8:55 AM 14.0 °F -1.4 °F 10.4 °F 86% 29.73 in 2.0 mi NW 15.0 mph 26.5 mph N/A Snow Light Snow
9:15 AM 14.0 °F -3.0 °F 10.4 °F 86% 29.73 in 2.0 mi NW 18.4 mph 27.6 mph N/A Snow Light Snow
9:35 AM 15.8 °F -0.6 °F 10.4 °F 79% 29.73 in 2.0 mi WNW 18.4 mph 24.2 mph N/A Snow Light Snow
9:55 AM 14.0 °F -4.3 °F 10.4 °F 86% 29.73 in 3.0 mi NW 21.9 mph 32.2 mph N/A Snow Light Snow
10:15 AM 14.0 °F -4.3 °F 10.4 °F 86% 29.73 in 4.0 mi WNW 21.9 mph 27.6 mph N/A Snow Light Snow
10:35 AM 14.0 °F -3.0 °F 8.6 °F 79% 29.74 in 2.0 mi WNW 18.4 mph 27.6 mph N/A Snow Light Snow
10:55 AM 14.0 °F -4.7 °F 10.4 °F 86% 29.73 in 1.2 mi WNW 23.0 mph 27.6 mph N/A Snow Light Snow
11:15 AM 12.2 °F -7.1 °F 10.4 °F 92% 29.73 in 1.2 mi WNW 23.0 mph 29.9 mph N/A Snow Light Snow
11:35 AM 12.2 °F -5.8 °F 10.4 °F 92% 29.72 in 1.0 mi WNW 19.6 mph 29.9 mph N/A Snow Light Snow
11:55 AM 12.2 °F -5.3 °F 10.4 °F 92% 29.72 in 1.0 mi WNW 18.4 mph 29.9 mph N/A Snow Light Snow
12:15 PM 14.0 °F -2.0 °F 10.4 °F 86% 29.72 in 0.8 mi West 16.1 mph 24.2 mph N/A Snow Light Snow
12:35 PM 14.0 °F -4.7 °F 10.4 °F 86% 29.71 in 1.0 mi WNW 23.0 mph 33.4 mph N/A Snow Light Snow
1:15 PM 14.0 °F -3.4 °F 10.4 °F 86% 29.71 in 1.2 mi West 19.6 mph 27.6 mph N/A Snow Light Snow
1:35 PM 15.8 °F -1.5 °F 10.4 °F 79% 29.71 in 1.8 mi WNW 20.7 mph 26.5 mph N/A Snow Light Snow
1:55 PM 15.8 °F -1.9 °F 10.4 °F 79% 29.71 in 1.2 mi WNW 21.9 mph 27.6 mph N/A Snow Light Snow
2:15 PM 15.8 °F -1.1 °F 10.4 °F 79% 29.72 in 1.0 mi West 19.6 mph 24.2 mph N/A Snow Light Snow
2:35 PM 15.8 °F 0.9 °F 10.4 °F 79% 29.72 in 1.0 mi WNW 15.0 mph - N/A Snow Light Snow
2:55 PM 15.8 °F -0.6 °F 10.4 °F 79% 29.73 in 1.0 mi West 18.4 mph 21.9 mph N/A Snow Light Snow
3:15 PM 15.8 °F 1.4 °F 10.4 °F 79% 29.74 in 1.0 mi West 13.8 mph 21.9 mph N/A Snow Light Snow
3:35 PM 15.8 °F 0.3 °F 10.4 °F 79% 29.75 in 1.0 mi WNW 16.1 mph 31.1 mph N/A Snow Light Snow
4:15 PM 15.8 °F -0.2 °F 12.2 °F 86% 29.76 in 1.0 mi WNW 17.3 mph 24.2 mph N/A Snow Light Snow
4:35 PM 15.8 °F -0.2 °F 10.4 °F 79% 29.76 in 1.2 mi WNW 17.3 mph 26.5 mph N/A Snow Light Snow
4:55 PM 15.8 °F -1.5 °F 10.4 °F 79% 29.77 in 1.5 mi WNW 20.7 mph 26.5 mph N/A Snow Light Snow
5:15 PM 15.8 °F 0.9 °F 10.4 °F 79% 29.78 in 2.5 mi WNW 15.0 mph - N/A Snow Light Snow
5:35 PM 15.8 °F -0.2 °F 10.4 °F 79% 29.78 in 3.0 mi WNW 17.3 mph 20.7 mph N/A Snow Light Snow
5:55 PM 15.8 °F 2.1 °F 12.2 °F 86% 29.79 in 2.5 mi WNW 12.7 mph 20.7 mph N/A Snow Light Snow
6:15 PM 15.8 °F 0.3 °F 12.2 °F 86% 29.79 in 2.0 mi West 16.1 mph 19.6 mph N/A Snow Light Snow
6:35 PM 14.0 °F -2.5 °F 12.2 °F 93% 29.79 in 2.0 mi WNW 17.3 mph 21.9 mph N/A Snow Light Snow
6:55 PM 15.8 °F 0.3 °F 12.2 °F 86% 29.80 in 2.5 mi WNW 16.1 mph 20.7 mph N/A Snow Light Snow
7:15 PM 15.8 °F 1.4 °F 12.2 °F 86% 29.80 in 2.5 mi West 13.8 mph 19.6 mph N/A Snow Light Snow
7:35 PM 15.8 °F 0.3 °F 12.2 °F 86% 29.80 in 3.0 mi WNW 16.1 mph 19.6 mph N/A Snow Light Snow
7:55 PM 15.8 °F 1.4 °F 12.2 °F 86% 29.81 in 2.0 mi WNW 13.8 mph 19.6 mph N/A Snow Light Snow
8:15 PM 15.8 °F 1.4 °F 12.2 °F 86% 29.82 in 3.0 mi West 13.8 mph 20.7 mph N/A Snow Light Snow
8:55 PM 15.8 °F -1.9 °F 10.4 °F 79% 29.82 in 7.0 mi NW 21.9 mph 28.8 mph N/A   Overcast
9:15 PM 15.8 °F -1.5 °F 10.4 °F 79% 29.82 in 7.0 mi WNW 20.7 mph 27.6 mph N/A   Overcast
9:35 PM 14.0 °F -3.0 °F 8.6 °F 79% 29.83 in 10.0 mi WNW 18.4 mph 23.0 mph N/A   Overcast
9:55 PM 14.0 °F -3.9 °F 8.6 °F 79% 29.84 in 10.0 mi WNW 20.7 mph 28.8 mph N/A   Overcast
10:15 PM 14.0 °F -0.8 °F 8.6 °F 79% 29.84 in 10.0 mi WNW 13.8 mph 25.3 mph N/A   Mostly Cloudy
10:35 PM 14.0 °F -1.4 °F 8.6 °F 79% 29.84 in 10.0 mi WNW 15.0 mph - N/A   Mostly Cloudy
10:55 PM 14.0 °F -0.8 °F 8.6 °F 79% 29.85 in 10.0 mi WNW 13.8 mph 21.9 mph N/A   Overcast
11:15 PM 14.0 °F -1.4 °F 8.6 °F 79% 29.85 in 7.0 mi WNW 15.0 mph 20.7 mph N/A   Overcast
11:35 PM 12.2 °F -3.1 °F 10.4 °F 92% 29.86 in 10.0 mi West 13.8 mph 19.6 mph N/A Snow Light Snow
11:55 PM 12.2 °F -1.8 °F 10.4 °F 92% 29.86 in 10.0 mi West 11.5 mph 21.9 mph N/A Snow Light Snow